Location: Del Oro Observatory
(38.3044°N, 104.8119°W)
Time: 23:15:08
(UTC-06:00)

Daily predictions for brighter satellites

Satellite Brightness Start Highest point End
(mag) Time Altitude Azimuth Time Altitude Azimuth Time Altitude Azimuth
Cosmos 2219 Rocket 3.1 20:34:39 10° SW 20:40:11 55° WNW 20:45:43 10° NNE
Cosmos 2058 Rocket 4.2 20:36:34 10° NNE 20:40:18 27° ENE 20:44:00 10° SE
OAO 3 Copernicus 4.5 20:37:54 10° WSW 20:42:53 60° S 20:47:51 10° E
Abrixas rocket 4.4 20:41:46 10° NW 20:44:31 22° NNE 20:47:15 10° ENE
SL-16 R/B 2.5 20:39:13 10° S 20:44:34 46° ESE 20:49:56 10° NE
Cosmos 1666 4.5 20:43:44 10° NNE 20:46:23 17° ENE 20:49:02 10° ESE
Aureole 2 Rocket 4.2 20:44:28 10° SSE 20:47:22 19° ESE 20:50:08 10° NE
Cosmos 1500 3.2 20:43:51 10° N 20:47:45 83° E 20:51:38 10° S
Okean 2 4.3 20:45:02 10° SSE 20:48:42 31° E 20:52:24 10° NNE
deb Chang Zheng 4 3.9 20:44:32 10° NNE 20:48:48 47° E 20:53:00 10° S
Meteor 1-13 Rocket 4.3 20:43:31 10° S 20:49:22 88° E 20:55:07 10° N
Cosmos 1743 2.8 20:52:00 10° N 20:55:48 57° E 20:59:33 10° SSE
Cosmos 494 Rocket 4.2 20:53:17 10° S 20:58:11 48° ESE 21:03:06 10° NNE
SJ-11-01 4.3 21:01:08 10° SSE 21:05:45 70° ENE 21:10:24 10° N
Cosmos 1606 Rocket 3.6 21:02:55 10° N 21:07:23 89° ENE 21:11:47 10° S
CZ-4 DEB 4.3 21:04:40 10° SSW 21:07:41 36° W 21:10:42 10° NNW
CZ-2C R/B 0.8 21:06:15 10° S 21:08:32 62° W 21:10:51 10° NNW
H-2A R/B 2.0 21:08:42 10° SSE 21:12:53 80° ENE 21:17:13 10° N
DEBRIS 3.6 21:07:00 10° NW 21:12:59 44° NNE 21:15:03 14° E
Cosmos 1603 4.5 21:08:35 10° SSE 21:13:21 29° ESE 21:18:09 10° NE
Meteor 1-19 Rocket 4.3 21:07:59 10° S 21:13:38 83° W 21:19:15 10° N
Milstar 3 Cent rocket 3.6 21:10:01 10° WSW 21:16:22 27° SSW 21:19:50 14° SSE
Meteor 2-4 Rocket 3.8 21:13:07 10° S 21:18:55 80° E 21:24:52 10° NNE
Cosmos 1331 Rocket 4.0 21:14:38 10° NNW 21:19:52 77° ENE 21:24:17 14° SSE
Meteor 2-9 Rocket 4.4 21:14:41 10° N 21:20:17 60° E 21:25:16 14° SSE
SPOT 5 3.1 21:17:32 16° SE 21:20:51 45° ENE 21:25:01 10° N
Cosmos 1626 Rocket 4.1 21:18:55 14° SSE 21:22:21 38° E 21:26:28 10° NNE
Cosmos 2333 Rocket 4.1 21:18:27 10° WSW 21:23:31 33° WNW 21:28:37 10° N
CZ-4 SHROUD 3.6 21:22:15 21° SE 21:24:02 47° ENE 21:27:07 10° N
USA 186 4.4 21:25:42 10° SW 21:27:40 16° W 21:29:34 10° NW
Cosmos 1302 Rocket 4.3 21:23:13 10° N 21:28:21 53° ENE 21:31:49 20° SE
Cosmos 2297 3.8 21:23:04 10° NNW 21:28:49 84° WSW 21:33:35 15° SSE
ATLAS CENTAUR R/B 3.7 21:29:07 10° WSW 21:33:38 35° NW 21:38:15 10° NNE
APEX 3.9 21:30:59 10° NNW 21:34:56 55° ENE 21:37:53 23° SE
SeaSat 1 2.4 21:32:58 20° SSE 21:36:28 80° ENE 21:41:25 10° NNW
Cosmos 1891 Rocket 4.4 21:32:31 10° N 21:38:40 73° E 21:43:25 17° SSE
Cosmos 1943 4.5 21:39:29 19° ESE 21:40:09 20° E 21:44:08 10° NE
CZ-4B R/B 3.7 21:35:28 10° NNE 21:40:24 51° E 21:44:18 16° S
Cosmos 2228 3.0 21:37:23 10° N 21:41:49 89° E 21:44:52 20° S
YAOGAN 6 3.1 21:47:30 33° ESE 21:48:39 44° ENE 21:52:13 10° N
Terra 3.6 21:51:59 16° E 21:53:23 18° ENE 21:56:31 10° NNE
Tsikada Rocket 4.0 21:51:53 11° S 21:58:00 83° E 22:04:26 10° N
Cosmos 1939 Rocket 4.1 21:55:28 14° SSW 21:58:44 40° W 22:02:40 10° NNW
Atlas Centaur 2 3.5 21:51:33 10° SW 21:58:45 38° SSE 22:03:19 22° ESE
GRACE-1 4.2 21:56:27 10° N 21:59:19 65° W 22:00:00 44° SSW
GRACE-2 4.2 21:56:54 10° N 21:59:45 65° W 22:00:26 45° SSW
Envisat 3.4 21:57:00 17° S 22:00:48 59° W 22:05:50 10° NNW
COSMOS 2455 2.9 21:56:15 13° S 22:01:29 52° ESE 22:07:19 10° NE
MetOp-A 4.1 21:58:43 25° SSE 22:01:56 88° WSW 22:07:20 10° NNW
SL-08 RB Rocket 4.3 22:01:19 32° ESE 22:02:41 41° ENE 22:06:56 10° N
PSLV R/B 4.3 22:02:46 27° SSW 22:03:55 39° W 22:06:51 10° NNW
USA 81 4.5 22:02:06 10° N 22:07:09 44° E 22:08:46 34° SE
ATLAS 3B R/B 3.5 22:05:15 27° SSE 22:07:59 34° ESE 22:14:40 10° NE
Cosmos 2278 Rocket 4.5 22:07:04 10° WNW 22:10:42 18° W 22:14:20 10° SW
Lacrosse 5 rocket 4.3 22:14:11 10° WNW 22:16:55 18° NNW 22:19:46 10° NNE
USA 234 3.2 22:15:11 32° SE 22:18:31 80° SW 22:25:08 10° NW
Abrixas rocket 2.2 22:18:32 10° WNW 22:21:51 81° W 22:21:51 81° W
Lacrosse 4 Rocket 3.7 22:26:58 12° ENE 22:26:58 12° ENE 22:27:30 10° ENE
Cosmos 2369 Rocket 3.0 22:21:07 10° N 22:26:23 38° ENE 22:28:01 31° E
SL-16 R/B 4.4 22:24:19 10° WSW 22:28:52 25° WNW 22:33:28 10° N
ARGOS 3.1 22:29:43 41° S 22:31:42 84° WSW 22:37:10 10° NNW
Cosmos 1825 Rocket 3.5 22:31:07 62° SSE 22:31:46 75° E 22:36:13 10° N
H-2A R/B 2.4 22:31:07 41° E 22:31:58 46° ENE 22:36:44 10° N
NOAA 11 4.1 22:33:57 44° S 22:35:46 85° WSW 22:41:13 10° NNW
Meteor 1-22 Rocket 4.4 22:30:59 10° N 22:36:25 54° ENE 22:37:37 46° ESE
Cosmos 1812 Rocket 4.4 22:33:51 10° NNW 22:38:02 46° W 22:39:24 34° SW
Cosmos 1461 3.2 22:35:46 10° NW 22:39:54 52° WSW 22:40:09 52° SW
SPOT 1/Viking Rocket 4.1 22:38:23 34° SSW 22:40:23 53° W 22:45:26 10° NNW
Cosmos 1992 Rocket 3.9 22:37:30 10° NNW 22:42:45 76° ENE 22:43:40 59° SE
Cosmos 1634 Rocket 3.9 22:38:42 10° N 22:44:54 88° E 22:46:54 46° S
Cosmos 1346 Rocket 3.1 22:45:39 55° NE 22:45:39 55° NE 22:48:52 10° NNE
DMSP B5D2-2 4.1 22:42:17 10° NNE 22:47:31 59° E 22:47:57 57° ESE
Cosmos 1066 Rocket 4.3 22:53:02 40° SSW 22:55:08 73° W 23:00:55 10° N
Kosmos-1675 3.6 22:55:48 70° ENE 22:55:48 70° ENE 23:02:48 10° NNE
Cosmos 1190 Rocket 3.9 22:54:39 62° S 22:55:35 84° ESE 23:00:56 10° NNE
Cosmos 1842 4.5 23:07:51 35° NNE 23:07:51 35° NNE 23:10:20 10° NNE
Spot 4 3.7 23:06:33 78° ENE 23:06:33 78° ENE 23:11:20 10° N
Cosmos 489 Rocket 4.4 23:05:08 52° S 23:06:49 83° ESE 23:13:12 10° NNE
Meteor 1-21 4.1 23:09:01 66° S 23:09:54 87° E 23:15:45 10° N
Cosmos 676 Rocket 4.0 23:11:44 69° E 23:11:44 69° E 23:16:51 10° NNE
Cosmos 2279 Rocket 3.9 23:05:32 10° N 23:11:49 84° E 23:12:54 63° SSE
Landsat 7 4.4 23:14:36 46° WSW 23:14:56 46° W 23:19:31 10° NNW
Cosmos 1953 Rocket 4.3 23:15:37 45° W 23:15:54 46° W 23:20:11 10° N
Cosmos 1943 3.8 23:21:12 30° SW 23:23:43 52° WNW 23:29:18 10° NNE
Cosmos 2180 Rocket 4.4 23:19:09 10° N 23:25:27 89° E 23:26:17 69° S
Cosmos 1766 4.3 23:22:36 10° NNW 23:25:34 45° NW 23:25:34 45° NW
Cosmos 1140 Rocket 4.4 23:29:48 38° ENE 23:29:48 38° ENE 23:33:31 10° NNE
Terra 2.5 23:30:52 46° W 23:30:52 46° W 23:35:19 10° NNW
Cosmos 1943 Rocket 2.3 23:37:07 10° NNW 23:42:31 62° ENE 23:42:31 62° ENE
Cosmos 407 Rocket 4.5 23:45:24 37° W 23:46:33 42° WNW 23:51:31 10° N
Cosmos-2242 3.9 23:42:16 10° NNW 23:45:36 47° NW 23:45:36 47° NW
Atlas Centaur 2 3.5 23:40:04 10° WSW 23:46:01 42° SW 23:46:01 42° SW
Cosmos 1953 3.9 23:50:25 10° NNW 23:52:49 33° NNW 23:52:49 33° NNW
CZ-4B R/B 4.1 23:57:41 18° NNE 23:57:41 18° NNE 23:58:57 10° NNE
